Location: Aix-en-Ergny
(50.5839°N, 1.9996°E)
Time: 06:58:25
(UTC+00:00)

Cosmos 676 Rocket - Pass Details

Date: 23 October 2019
Orbit: 755 x 783 km, 74.0° (Epoch: 11 November)

Event Time Altitude Azimuth Distance (km) Brightness Sun altitude
Exits shadow 04:19:10 23° 204° (SSW) 1,585 5.3 -20.9°
Maximum altitude 04:22:30 88° 290° (WNW) 776 3.9 -20.4°
Drops below altitude 10° 04:27:46 10° 24° (NNE) 2,310 6.9 -19.6°
Sets 04:30:08 0° 25° (NNE) 3,237 7.7 -19.2°
